Flag for Brazil Weather past 2 weeks in Belém, Para, Brazil

Now
N/A

Drizzle.


Feels Like: N/A
Forecast: N/A
Wind: 7 mph from Northeast

Location: Belem Aeroporto

Current Time: Apr 1, 2015 at 6:54:19 PM

Latest Report: Apr 1, 2015 at 6:00 PM


Visibility: 3 mi

Pressure: N/A

Humidity: N/A

Dew point: N/A

Location of BelémLocation

Historic Weather in Belém — Graph

°F

Belém temperature yesterday

Maximum temperature yesterday: 86 °F (at 2:00 PM)
Minimum temperature yesterday: 75 °F (at 1:00 AM)
Average temperature yesterday: 79 °F

Past Weeks' High & Low Weather Summary

 TemperatureHumidityPressure
High88 °F (Mar 29, 12:00 PM)100% (Mar 19, 9:00 PM)30.01 "Hg (Mar 19, 9:00 PM)
Low37 °F (Mar 20, 8:00 PM)22% (Mar 25, 6:00 PM)29.77 "Hg (Mar 18, 5:00 PM)
Average78 °F87%29.90 "Hg
* Reported Mar 17 5:00 PM — Apr 1 5:00 PM, Belém, Weather by CustomWeather, © 2015

Note: Actual official high and low records may vary slightly from our data, if they occured in-between our weather recording intervals... More about our weather records

Advertising

Belém weather history for previous 24 hours

 ConditionsComfort  
Time TempWeatherWind HumidityBarometerVisibility
5:00 PM
Wed, Apr 1
77 °FLight rain. Partly sunny.7 mph94%N/A4 mi
4:00 PM77 °FThunderstorms. Mostly cloudy.9 mph94%29.86 "Hg1 mi
3:00 PM82 °FPartly sunny.9 mph79%29.86 "HgN/A
2:00 PM81 °FBroken clouds.7 mph84%29.89 "HgN/A
1:00 PM81 °FPartly sunny.6 mph84%29.92 "HgN/A
12:00 PM79 °FLight rain. Partly sunny.5 mph89%29.98 "HgN/A
11:00 AM79 °FLight rain. Broken clouds.9 mph89%29.98 "Hg4 mi
10:00 AM77 °FLight rain. Broken clouds.6 mph94%29.98 "HgN/A
9:00 AM79 °FPartly sunny.9 mph89%29.95 "HgN/A
8:00 AM77 °FBroken clouds.3 mph94%29.92 "HgN/A
7:00 AM75 °FBroken clouds.5 mph100%29.92 "HgN/A
6:00 AM77 °FPartly cloudy.2 mph94%29.89 "HgN/A
5:00 AM77 °FPassing clouds.2 mph94%29.86 "HgN/A
4:00 AM77 °FPassing clouds.1 mph94%29.86 "HgN/A
3:00 AM77 °FPassing clouds.3 mph94%29.86 "HgN/A
2:00 AM77 °FPassing clouds.5 mph94%29.86 "HgN/A
1:00 AM77 °FPassing clouds.2 mph94%29.89 "HgN/A
12:00 AM77 °FPassing clouds.5 mph94%29.92 "HgN/A
11:00 PM
Tue, Mar 31
79 °FPassing clouds.3 mph89%29.92 "HgN/A
10:00 PM79 °FPassing clouds.6 mph89%29.92 "HgN/A
9:00 PM79 °FPartly cloudy.7 mph89%29.89 "HgN/A
8:00 PM79 °FPartly cloudy.5 mph89%29.86 "HgN/A
7:00 PM79 °FPassing clouds.5 mph89%29.86 "HgN/A
6:00 PM79 °FLight rain. Partly sunny.6 mph89%29.83 "HgN/A
Weather by CustomWeather, © 2015

See weather overviewHow to use our weather pages